Regional Weather Roundup
Issued by NWS

Home | Current Version | Previous Version | Graphics & Text | Print | Product List | Glossary On
Versions: 1 2 3 4 5 6 7 8 9 10 11 12 13 14 15 16 17 18 19 20 21 22 23 24 25 26 27 28 29 30 31 32 33 34 35 36 37 38 39 40 41 42 43 44 45 46 47 48 49 50
000
ASUS44 KMEG 291100
RWRTN
TENNESSEE HOURLY STATE WEATHER ROUNDUP
NATIONAL WEATHER SERVICE MEMPHIS TN
600 AM CDT SAT AUG 29 2015

TNZ002-004-019-021-049-052-054-088>092-291200-
WEST TENNESSEE

CITY           SKY/WX    TMP DP  RH WIND       PRES   REMARKS
MEMPHIS INTL   PTCLDY    72  67  84 S7        30.04R
NWS MEMPHIS      N/A     69 N/A N/A MISG        N/A
JACKSON        CLEAR     72  68  87 S8        30.06S
DYERSBURG      MOCLDY   N/A N/A N/A MISG        N/A
UNION CITY       N/A     70  70 100 SE3       30.05R
PARIS          CLEAR     66  64  94 S6        30.08S
LEXINGTON      CLEAR     64  63  94 CALM      30.08R
$$

TNZ008-025-027-028-033-062-065-066-291200-
NORTH MIDDLE TENNESSEE

CITY           SKY/WX    TMP DP  RH WIND       PRES   REMARKS
NASHVILLE      MOCLDY    71  65  81 CALM      30.12R
CLARKSVILLE    PTCLDY    67  64  90 SE6       30.09R
COOKEVILLE     CLEAR     64  63  94 SE3       30.15R
CROSSVILLE     CLEAR     68  62  81 CALM      30.21R
$$

TNZ061-075-076-078-094-096-097-291200-
SOUTH MIDDLE TENNESSEE

CITY           SKY/WX    TMP DP  RH WIND       PRES   REMARKS
FAYETTEVILLE   CLEAR     68  64  88 CALM      30.13S
TULLAHOMA      CLEAR     70  64  83 SE7       30.15S
WINCHESTER     CLEAR     72  66  83 SE8       30.14F
COLUMBIA       CLEAR     70  70 100 CALM      30.10R
SHELBYVILLE    CLEAR     70  66  88 CALM      30.14R
$$

TNZ017-018-042-046-047-291200-
NORTHEAST TENNESSEE

CITY           SKY/WX    TMP DP  RH WIND       PRES   REMARKS
TRI CITIES     MOCLDY    60  58  92 CALM      30.23R
ELIZABETHTON   CLOUDY    61  55  82 CALM      30.24R
$$

TNZ012-013-036-069-073-074-291200-
CENTRAL EAST TENNESSEE

CITY           SKY/WX    TMP DP  RH WIND       PRES   REMARKS
KNOXVILLE      MOCLDY    67  66  97 CALM      30.18R
OAK RIDGE      PTCLDY    67  64  90 CALM      30.19R
GATLINBURG     SUNNY     61  57  88 CALM      30.19R
$$

TNZ083-085-099-291200-
SOUTHEAST TENNESSEE

CITY           SKY/WX    TMP DP  RH WIND       PRES   REMARKS
CHATTANOOGA    MOCLDY    69  66  90 CALM      30.17R
$$

SKY/WX REPORTED AS FAIR MEANS FEW OR NO CLOUDS BELOW
12 THOUSAND FEET.




USA.gov is the U.S. government's official web portal to all federal, state and local government web resources and services.